Time,TemperatureF,DewpointF,PressureIn,WindDirection,WindDirectionDegrees,WindSpeedMPH,WindSpeedGustMPH,Humidity,HourlyPrecipIn,Conditions,Clouds,dailyrainin,SoftwareType,DateUTC
2013-03-22 00:02:00,69.5,56.4,29.45,SSW,205,12.0,19.0,63,0.00,,---,0.00,VWS V14.01,2013-03-22 05:02:00,
2013-03-22 00:05:00,69.5,56.8,29.45,SW,224,13.0,19.0,64,0.00,,---,0.00,VWS V14.01,2013-03-22 05:05:00,
2013-03-22 00:08:00,69.4,56.7,29.45,SW,220,13.0,21.0,64,0.00,,---,0.00,VWS V14.01,2013-03-22 05:08:00,
2013-03-22 00:11:00,69.4,56.7,29.45,SW,229,14.0,21.0,64,0.00,,---,0.00,VWS V14.01,2013-03-22 05:11:00,
2013-03-22 00:14:00,69.4,56.7,29.45,SW,219,12.0,21.0,64,0.00,,---,0.00,VWS V14.01,2013-03-22 05:14:00,
2013-03-22 00:17:00,69.3,56.6,29.45,SSW,199,9.0,21.0,64,0.00,,---,0.00,VWS V14.01,2013-03-22 05:17:00,
2013-03-22 00:20:00,69.1,56.4,29.45,SSW,198,14.0,21.0,64,0.00,,---,0.00,VWS V14.01,2013-03-22 05:20:00,
2013-03-22 00:23:00,69.0,56.3,29.45,SSW,192,17.0,21.0,64,0.00,,---,0.00,VWS V14.01,2013-03-22 05:23:00,
2013-03-22 00:26:00,69.0,56.8,29.45,South,178,19.0,21.0,65,0.00,,---,0.00,VWS V14.01,2013-03-22 05:26:00,
2013-03-22 00:32:00,69.0,56.3,29.45,SW,227,12.0,19.0,64,0.00,,---,0.00,VWS V14.01,2013-03-22 05:32:00,
2013-03-22 00:36:00,69.0,56.3,29.45,SSW,211,8.0,19.0,64,0.00,,---,0.00,VWS V14.01,2013-03-22 05:36:00,
2013-03-22 00:39:00,68.8,56.6,29.45,SW,218,14.0,19.0,65,0.00,,---,0.00,VWS V14.01,2013-03-22 05:39:00,
2013-03-22 00:42:00,68.7,56.5,29.45,SSW,210,10.0,19.0,65,0.00,,---,0.00,VWS V14.01,2013-03-22 05:42:00,
2013-03-22 00:48:00,68.4,56.2,29.45,SSW,206,13.0,19.0,65,0.00,,---,0.00,VWS V14.01,2013-03-22 05:48:00,
2013-03-22 00:51:00,68.3,56.5,29.44,SW,236,18.0,19.0,66,0.00,,---,0.00,VWS V14.01,2013-03-22 05:51:00,
2013-03-22 00:54:00,68.4,56.2,29.45,South,191,10.0,19.0,65,0.00,,---,0.00,VWS V14.01,2013-03-22 05:54:00,
2013-03-22 00:57:00,68.3,56.5,29.45,SSW,213,10.0,19.0,66,0.00,,---,0.00,VWS V14.01,2013-03-22 05:57:00,
2013-03-22 01:00:00,68.4,56.2,29.45,SW,228,12.0,19.0,65,0.00,,---,0.00,VWS V14.01,2013-03-22 06:00:00,
2013-03-22 01:03:00,68.4,56.2,29.45,SSW,202,11.0,16.0,65,0.00,,---,0.00,VWS V14.01,2013-03-22 06:03:00,
2013-03-22 01:09:00,68.2,56.4,29.45,SSW,208,10.0,18.0,66,0.00,,---,0.00,VWS V14.01,2013-03-22 06:09:00,
2013-03-22 01:15:00,68.1,56.3,29.45,SSW,211,17.0,18.0,66,0.00,,---,0.00,VWS V14.01,2013-03-22 06:15:00,
2013-03-22 01:18:00,67.9,56.1,29.45,SSW,209,13.0,18.0,66,0.00,,---,0.00,VWS V14.01,2013-03-22 06:18:00,
2013-03-22 01:21:00,67.8,56.5,29.45,SSW,206,14.0,18.0,67,0.00,,---,0.00,VWS V14.01,2013-03-22 06:21:00,
2013-03-22 01:24:00,67.8,56.5,29.45,SSW,210,7.0,18.0,67,0.00,,---,0.00,VWS V14.01,2013-03-22 06:24:00,
2013-03-22 01:27:00,67.6,56.3,29.45,SSW,209,9.0,18.0,67,0.00,,---,0.00,VWS V14.01,2013-03-22 06:27:00,
2013-03-22 01:30:00,67.6,56.3,29.45,SW,227,12.0,18.0,67,0.00,,---,0.00,VWS V14.01,2013-03-22 06:30:00,
2013-03-22 01:33:00,67.6,56.3,29.45,SW,227,8.0,16.0,67,0.00,,---,0.00,VWS V14.01,2013-03-22 06:33:00,
2013-03-22 01:36:00,67.5,56.2,29.45,SW,219,7.0,16.0,67,0.00,,---,0.00,VWS V14.01,2013-03-22 06:36:00,
2013-03-22 01:39:00,67.5,56.2,29.45,SW,227,10.0,16.0,67,0.00,,---,0.00,VWS V14.01,2013-03-22 06:39:00,
2013-03-22 01:42:00,67.5,56.2,29.45,SW,229,8.0,17.0,67,0.00,,---,0.00,VWS V14.01,2013-03-22 06:42:00,
2013-03-22 01:45:00,67.4,56.1,29.45,SW,225,11.0,17.0,67,0.00,,---,0.00,VWS V14.01,2013-03-22 06:45:00,
2013-03-22 01:51:00,67.6,56.3,29.45,SSW,212,10.0,17.0,67,0.00,,---,0.00,VWS V14.01,2013-03-22 06:51:00,
2013-03-22 01:54:00,67.5,56.2,29.45,SSW,209,10.0,17.0,67,0.00,,---,0.00,VWS V14.01,2013-03-22 06:54:00,
2013-03-22 01:57:00,67.5,56.2,29.45,SW,219,13.0,17.0,67,0.00,,---,0.00,VWS V14.01,2013-03-22 06:57:00,
2013-03-22 02:00:00,67.5,56.2,29.45,SW,224,11.0,17.0,67,0.00,,---,0.00,VWS V14.01,2013-03-22 07:00:00,
2013-03-22 02:03:00,67.5,56.2,29.45,SW,224,9.0,14.0,67,0.00,,---,0.00,VWS V14.01,2013-03-22 07:03:00,
2013-03-22 02:06:00,67.5,56.2,29.45,SSW,210,10.0,19.0,67,0.00,,---,0.00,VWS V14.01,2013-03-22 07:06:00,
2013-03-22 02:09:00,67.6,56.3,29.45,SW,217,10.0,19.0,67,0.00,,---,0.00,VWS V14.01,2013-03-22 07:09:00,
2013-03-22 02:12:00,67.6,56.3,29.45,SSW,213,13.0,19.0,67,0.00,,---,0.00,VWS V14.01,2013-03-22 07:12:00,
2013-03-22 02:16:00,67.5,55.8,29.45,SSW,200,12.0,19.0,66,0.00,,---,0.00,VWS V14.01,2013-03-22 07:16:00,
2013-03-22 02:19:00,67.5,56.2,29.45,SW,225,11.0,19.0,67,0.00,,---,0.00,VWS V14.01,2013-03-22 07:19:00,
2013-03-22 02:22:00,67.4,56.1,29.45,SSW,202,12.0,19.0,67,0.00,,---,0.00,VWS V14.01,2013-03-22 07:22:00,
2013-03-22 02:25:00,67.3,56.0,29.45,SW,220,11.0,19.0,67,0.00,,---,0.00,VWS V14.01,2013-03-22 07:25:00,
2013-03-22 02:28:00,67.4,56.1,29.45,SW,223,11.0,19.0,67,0.00,,---,0.00,VWS V14.01,2013-03-22 07:28:00,
2013-03-22 02:31:00,67.3,56.0,29.45,SW,215,6.0,19.0,67,0.00,,---,0.00,VWS V14.01,2013-03-22 07:31:00,
2013-03-22 02:34:00,67.2,55.9,29.45,SW,222,7.0,14.0,67,0.00,,---,0.00,VWS V14.01,2013-03-22 07:34:00,
2013-03-22 02:37:00,67.1,56.2,29.45,SW,229,13.0,17.0,68,0.00,,---,0.00,VWS V14.01,2013-03-22 07:37:00,
2013-03-22 02:40:00,67.1,56.2,29.46,SW,226,8.0,17.0,68,0.00,,---,0.00,VWS V14.01,2013-03-22 07:40:00,
2013-03-22 02:49:00,66.7,55.8,29.46,SW,220,10.0,17.0,68,0.00,,---,0.00,VWS V14.01,2013-03-22 07:49:00,
2013-03-22 02:52:00,66.5,56.0,29.46,SW,219,12.0,17.0,69,0.00,,---,0.00,VWS V14.01,2013-03-22 07:52:00,
2013-03-22 02:55:00,66.5,55.6,29.46,SW,222,10.0,17.0,68,0.00,,---,0.00,VWS V14.01,2013-03-22 07:55:00,
2013-03-22 02:58:00,66.3,55.8,29.46,SSW,208,8.0,17.0,69,0.00,,---,0.00,VWS V14.01,2013-03-22 07:58:00,
2013-03-22 03:01:00,66.1,55.7,29.46,SSW,205,8.0,9.0,69,0.00,,---,0.00,VWS V14.01,2013-03-22 08:01:00,
2013-03-22 03:04:00,66.1,55.7,29.47,SW,219,10.0,15.0,69,0.00,,---,0.00,VWS V14.01,2013-03-22 08:04:00,
2013-03-22 03:10:00,65.9,55.5,29.47,SSW,213,11.0,15.0,69,0.00,,---,0.00,VWS V14.01,2013-03-22 08:10:00,
2013-03-22 03:13:00,65.9,55.8,29.47,SW,221,10.0,15.0,70,0.00,,---,0.00,VWS V14.01,2013-03-22 08:13:00,
2013-03-22 03:16:00,65.8,55.8,29.47,SW,229,7.0,15.0,70,0.00,,---,0.00,VWS V14.01,2013-03-22 08:16:00,
2013-03-22 03:19:00,65.6,55.6,29.47,SW,223,8.0,15.0,70,0.00,,---,0.00,VWS V14.01,2013-03-22 08:19:00,
2013-03-22 03:22:00,65.6,55.6,29.47,SW,229,11.0,15.0,70,0.00,,---,0.00,VWS V14.01,2013-03-22 08:22:00,
2013-03-22 03:25:00,65.5,55.9,29.47,SW,219,10.0,15.0,71,0.00,,---,0.00,VWS V14.01,2013-03-22 08:25:00,
2013-03-22 03:28:00,65.4,55.8,29.47,SW,215,13.0,15.0,71,0.00,,---,0.00,VWS V14.01,2013-03-22 08:28:00,
2013-03-22 03:34:00,65.4,55.8,29.47,SW,223,9.0,13.0,71,0.00,,---,0.00,VWS V14.01,2013-03-22 08:34:00,
2013-03-22 03:37:00,65.1,55.5,29.47,SW,234,11.0,13.0,71,0.00,,---,0.00,VWS V14.01,2013-03-22 08:37:00,
2013-03-22 03:40:00,65.0,55.4,29.47,SW,234,7.0,13.0,71,0.00,,---,0.00,VWS V14.01,2013-03-22 08:40:00,
2013-03-22 03:43:00,64.8,55.6,29.47,WSW,239,7.0,13.0,72,0.00,,---,0.00,VWS V14.01,2013-03-22 08:43:00,
2013-03-22 03:46:00,64.6,55.4,29.47,SW,229,4.0,13.0,72,0.00,,---,0.00,VWS V14.01,2013-03-22 08:46:00,
2013-03-22 03:49:00,64.6,55.4,29.47,SW,227,7.0,13.0,72,0.00,,---,0.00,VWS V14.01,2013-03-22 08:49:00,
2013-03-22 03:52:00,64.4,55.2,29.47,SW,232,5.0,13.0,72,0.00,,---,0.00,VWS V14.01,2013-03-22 08:52:00,
2013-03-22 03:55:00,64.3,55.5,29.47,SW,233,10.0,13.0,73,0.00,,---,0.00,VWS V14.01,2013-03-22 08:55:00,
2013-03-22 04:01:00,64.6,55.8,29.47,SW,223,10.0,12.0,73,0.00,,---,0.00,VWS V14.01,2013-03-22 09:01:00,
2013-03-22 04:08:00,64.4,55.2,29.47,SW,229,6.0,12.0,72,0.00,,---,0.00,VWS V14.01,2013-03-22 09:08:00,
2013-03-22 04:11:00,64.2,55.4,29.47,SSW,210,8.0,12.0,73,0.00,,---,0.00,VWS V14.01,2013-03-22 09:11:00,
2013-03-22 04:17:00,64.0,55.2,29.47,SW,236,5.0,12.0,73,0.00,,---,0.00,VWS V14.01,2013-03-22 09:17:00,
2013-03-22 04:23:00,63.8,55.4,29.48,SW,232,6.0,12.0,74,0.00,,---,0.00,VWS V14.01,2013-03-22 09:23:00,
2013-03-22 04:26:00,63.8,55.4,29.48,SW,226,7.0,12.0,74,0.00,,---,0.00,VWS V14.01,2013-03-22 09:26:00,
2013-03-22 04:32:00,63.7,55.3,29.48,SW,234,5.0,7.0,74,0.00,,---,0.00,VWS V14.01,2013-03-22 09:32:00,
2013-03-22 04:38:00,63.4,55.0,29.48,WSW,239,7.0,11.0,74,0.00,,---,0.00,VWS V14.01,2013-03-22 09:38:00,
2013-03-22 04:44:00,63.0,55.0,29.48,SW,232,6.0,11.0,75,0.00,,---,0.00,VWS V14.01,2013-03-22 09:44:00,
2013-03-22 04:47:00,63.0,54.6,29.49,SW,231,5.0,11.0,74,0.00,,---,0.00,VWS V14.01,2013-03-22 09:47:00,
2013-03-22 04:50:00,62.9,54.9,29.49,WSW,248,7.0,11.0,75,0.00,,---,0.00,VWS V14.01,2013-03-22 09:50:00,
2013-03-22 04:56:00,63.5,54.7,29.49,WSW,257,10.0,13.0,73,0.00,,---,0.00,VWS V14.01,2013-03-22 09:56:00,
2013-03-22 04:59:00,63.8,54.2,29.50,WSW,255,5.0,13.0,71,0.00,,---,0.00,VWS V14.01,2013-03-22 09:59:00,
2013-03-22 05:02:00,63.8,53.5,29.50,WNW,285,10.0,12.0,69,0.00,,---,0.00,VWS V14.01,2013-03-22 10:02:00,
2013-03-22 05:05:00,64.2,52.2,29.51,WNW,292,14.0,16.0,65,0.00,,---,0.00,VWS V14.01,2013-03-22 10:05:00,
2013-03-22 05:11:00,61.7,48.1,29.53,NW,317,19.0,22.0,61,0.00,,---,0.00,VWS V14.01,2013-03-22 10:11:00,
2013-03-22 05:17:00,58.4,47.9,29.55,NW,309,12.0,23.0,68,0.00,,---,0.00,VWS V14.01,2013-03-22 10:17:00,
2013-03-22 05:23:00,55.7,46.5,29.56,NW,325,9.0,23.0,71,0.00,,---,0.00,VWS V14.01,2013-03-22 10:23:00,
2013-03-22 05:29:00,53.8,45.7,29.56,NW,321,17.0,23.0,74,0.00,,---,0.00,VWS V14.01,2013-03-22 10:29:00,
2013-03-22 05:32:00,53.2,45.1,29.56,NW,321,19.0,19.0,74,0.00,,---,0.00,VWS V14.01,2013-03-22 10:32:00,
2013-03-22 05:35:00,52.5,44.5,29.57,NW,317,13.0,22.0,74,0.00,,---,0.00,VWS V14.01,2013-03-22 10:35:00,
2013-03-22 05:38:00,51.7,43.3,29.57,NNW,339,15.0,25.0,73,0.00,,---,0.00,VWS V14.01,2013-03-22 10:38:00,
2013-03-22 05:44:00,50.1,42.2,29.58,NW,321,9.0,25.0,74,0.00,,---,0.00,VWS V14.01,2013-03-22 10:44:00,
2013-03-22 05:47:00,49.6,42.0,29.59,NW,316,10.0,25.0,75,0.00,,---,0.00,VWS V14.01,2013-03-22 10:47:00,
2013-03-22 05:50:00,49.2,42.0,29.59,NW,326,9.0,25.0,76,0.00,,---,0.00,VWS V14.01,2013-03-22 10:50:00,
2013-03-22 05:53:00,48.8,41.6,29.60,NNW,329,7.0,25.0,76,0.00,,---,0.00,VWS V14.01,2013-03-22 10:53:00,
2013-03-22 05:57:00,48.5,41.3,29.60,NNW,338,6.0,25.0,76,0.00,,---,0.00,VWS V14.01,2013-03-22 10:57:00,
2013-03-22 06:00:00,48.2,41.0,29.61,NNW,337,17.0,25.0,76,0.00,,---,0.00,VWS V14.01,2013-03-22 11:00:00,
2013-03-22 06:03:00,47.9,40.7,29.61,NW,325,6.0,12.0,76,0.00,,---,0.00,VWS V14.01,2013-03-22 11:03:00,
2013-03-22 06:09:00,47.3,40.5,29.61,NNW,342,20.0,20.0,77,0.00,,---,0.00,VWS V14.01,2013-03-22 11:09:00,
2013-03-22 06:15:00,47.3,40.8,29.61,NW,326,9.0,20.0,78,0.00,,---,0.00,VWS V14.01,2013-03-22 11:15:00,
2013-03-22 06:18:00,47.3,40.5,29.61,North,350,11.0,20.0,77,0.00,,---,0.00,VWS V14.01,2013-03-22 11:18:00,
2013-03-22 06:24:00,47.4,40.6,29.63,NNW,340,8.0,20.0,77,0.00,,---,0.00,VWS V14.01,2013-03-22 11:24:00,
2013-03-22 06:27:00,47.5,40.7,29.64,NNW,327,5.0,20.0,77,0.00,,---,0.00,VWS V14.01,2013-03-22 11:27:00,
2013-03-22 06:30:00,47.5,40.7,29.64,NW,316,9.0,20.0,77,0.00,,---,0.00,VWS V14.01,2013-03-22 11:30:00,
2013-03-22 06:33:00,47.5,40.7,29.64,NW,325,7.0,15.0,77,0.00,,---,0.00,VWS V14.01,2013-03-22 11:33:00,
2013-03-22 06:39:00,47.6,40.8,29.65,NW,320,9.0,15.0,77,0.00,,---,0.00,VWS V14.01,2013-03-22 11:39:00,
2013-03-22 06:42:00,47.6,40.8,29.65,NNW,343,6.0,15.0,77,0.00,,---,0.00,VWS V14.01,2013-03-22 11:42:00,
2013-03-22 06:45:00,47.7,40.8,29.66,NNW,340,11.0,15.0,77,0.00,,---,0.00,VWS V14.01,2013-03-22 11:45:00,
2013-03-22 06:48:00,47.7,40.5,29.66,NNW,345,11.0,15.0,76,0.00,,---,0.00,VWS V14.01,2013-03-22 11:48:00,
2013-03-22 06:51:00,47.8,40.6,29.66,NW,318,8.0,15.0,76,0.00,,---,0.00,VWS V14.01,2013-03-22 11:51:00,
2013-03-22 06:54:00,47.8,40.6,29.67,NW,323,12.0,16.0,76,0.00,,---,0.00,VWS V14.01,2013-03-22 11:54:00,
2013-03-22 06:57:00,47.9,40.7,29.67,NNW,344,7.0,16.0,76,0.00,,---,0.00,VWS V14.01,2013-03-22 11:57:00,
2013-03-22 07:00:00,47.9,40.7,29.67,NNW,332,8.0,16.0,76,0.00,,---,0.00,VWS V14.01,2013-03-22 12:00:00,
2013-03-22 07:03:00,47.9,40.7,29.67,North,360,8.0,13.0,76,0.00,,---,0.00,VWS V14.01,2013-03-22 12:03:00,
2013-03-22 07:06:00,47.9,40.7,29.67,NNW,341,6.0,13.0,76,0.00,,---,0.00,VWS V14.01,2013-03-22 12:06:00,
2013-03-22 07:09:00,47.9,40.7,29.67,North,5,12.0,13.0,76,0.00,,---,0.00,VWS V14.01,2013-03-22 12:09:00,
2013-03-22 07:12:00,47.9,40.7,29.67,North,360,11.0,14.0,76,0.00,,---,0.00,VWS V14.01,2013-03-22 12:12:00,
2013-03-22 07:15:00,47.8,40.6,29.67,North,350,6.0,19.0,76,0.00,,---,0.00,VWS V14.01,2013-03-22 12:15:00,
2013-03-22 07:18:00,47.7,40.5,29.67,NNE,24,11.0,19.0,76,0.00,,---,0.00,VWS V14.01,2013-03-22 12:18:00,
2013-03-22 07:21:00,47.6,40.4,29.67,North,360,12.0,19.0,76,0.00,,---,0.00,VWS V14.01,2013-03-22 12:21:00,
2013-03-22 07:24:00,47.5,40.3,29.67,NNW,332,9.0,19.0,76,0.00,,---,0.00,VWS V14.01,2013-03-22 12:24:00,
2013-03-22 07:27:00,47.5,40.3,29.68,North,5,11.0,19.0,76,0.00,,---,0.00,VWS V14.01,2013-03-22 12:27:00,
2013-03-22 07:33:00,47.5,40.3,29.69,NNW,347,9.0,13.0,76,0.00,,---,0.00,VWS V14.01,2013-03-22 12:33:00,
2013-03-22 07:36:00,47.4,39.9,29.69,NNW,340,6.0,15.0,75,0.00,,---,0.00,VWS V14.01,2013-03-22 12:36:00,
2013-03-22 07:42:00,47.0,39.5,29.69,North,5,5.0,16.0,75,0.00,,---,0.00,VWS V14.01,2013-03-22 12:42:00,
2013-03-22 07:46:00,46.9,39.7,29.70,NNW,330,8.0,16.0,76,0.00,,---,0.00,VWS V14.01,2013-03-22 12:46:00,
2013-03-22 07:49:00,46.8,40.0,29.70,NNW,348,12.0,16.0,77,0.00,,---,0.00,VWS V14.01,2013-03-22 12:49:00,
2013-03-22 07:52:00,46.6,40.1,29.71,NNE,12,7.0,16.0,78,0.00,,---,0.00,VWS V14.01,2013-03-22 12:52:00,
2013-03-22 07:55:00,46.5,40.0,29.72,NNW,331,6.0,16.0,78,0.00,,---,0.00,VWS V14.01,2013-03-22 12:55:00,
2013-03-22 07:58:00,46.4,39.9,29.72,North,355,12.0,16.0,78,0.00,,---,0.00,VWS V14.01,2013-03-22 12:58:00,
2013-03-22 08:01:00,46.4,39.9,29.72,NNW,346,4.0,16.0,78,0.00,,---,0.00,VWS V14.01,2013-03-22 13:01:00,
2013-03-22 08:04:00,46.3,39.8,29.72,NNW,335,5.0,11.0,78,0.00,,---,0.00,VWS V14.01,2013-03-22 13:04:00,
2013-03-22 08:07:00,46.3,39.8,29.72,North,355,8.0,13.0,78,0.00,,---,0.00,VWS V14.01,2013-03-22 13:07:00,
2013-03-22 08:10:00,46.3,40.2,29.72,North,355,9.0,13.0,79,0.00,,---,0.00,VWS V14.01,2013-03-22 13:10:00,
2013-03-22 08:19:00,46.3,39.8,29.73,North,5,8.0,16.0,78,0.00,,---,0.00,VWS V14.01,2013-03-22 13:19:00,
2013-03-22 08:22:00,46.3,40.2,29.73,North,355,14.0,16.0,79,0.00,,---,0.00,VWS V14.01,2013-03-22 13:22:00,
2013-03-22 08:31:00,46.3,40.2,29.73,NNW,340,7.0,16.0,79,0.00,,---,0.00,VWS V14.01,2013-03-22 13:31:00,
2013-03-22 08:34:00,46.3,39.8,29.73,NNW,338,11.0,17.0,78,0.00,,---,0.00,VWS V14.01,2013-03-22 13:34:00,
2013-03-22 08:37:00,46.3,39.8,29.73,NW,325,7.0,17.0,78,0.00,,---,0.00,VWS V14.01,2013-03-22 13:37:00,
2013-03-22 08:40:00,46.3,39.8,29.74,North,5,6.0,17.0,78,0.00,,---,0.00,VWS V14.01,2013-03-22 13:40:00,
2013-03-22 08:43:00,46.3,39.8,29.74,NNW,342,8.0,18.0,78,0.00,,---,0.00,VWS V14.01,2013-03-22 13:43:00,
2013-03-22 08:49:00,46.0,39.5,29.74,North,9,14.0,18.0,78,0.00,,---,0.00,VWS V14.01,2013-03-22 13:49:00,
2013-03-22 08:52:00,45.8,39.7,29.74,NNW,327,12.0,18.0,79,0.00,,---,0.00,VWS V14.01,2013-03-22 13:52:00,
2013-03-22 08:58:00,45.9,39.8,29.74,North,350,11.0,18.0,79,0.00,,---,0.00,VWS V14.01,2013-03-22 13:58:00,
2013-03-22 09:01:00,45.8,39.7,29.74,North,351,10.0,10.0,79,0.00,,---,0.00,VWS V14.01,2013-03-22 14:01:00,
2013-03-22 09:07:00,45.8,39.7,29.74,North,360,5.0,12.0,79,0.00,,---,0.00,VWS V14.01,2013-03-22 14:07:00,
2013-03-22 09:10:00,45.7,39.6,29.74,North,351,5.0,13.0,79,0.00,,---,0.00,VWS V14.01,2013-03-22 14:10:00,
2013-03-22 09:13:00,45.7,39.6,29.74,North,355,8.0,13.0,79,0.00,,---,0.00,VWS V14.01,2013-03-22 14:13:00,
2013-03-22 09:19:00,45.4,39.6,29.74,North,5,8.0,14.0,80,0.00,,---,0.00,VWS V14.01,2013-03-22 14:19:00,
2013-03-22 09:25:00,45.5,39.7,29.74,North,350,6.0,14.0,80,0.00,,---,0.00,VWS V14.01,2013-03-22 14:25:00,
2013-03-22 09:29:00,45.5,39.7,29.74,NNE,13,8.0,14.0,80,0.00,,---,0.00,VWS V14.01,2013-03-22 14:29:00,
2013-03-22 09:32:00,45.6,39.5,29.74,North,5,8.0,10.0,79,0.00,,---,0.00,VWS V14.01,2013-03-22 14:32:00,
2013-03-22 09:35:00,45.5,39.7,29.74,NNW,332,8.0,10.0,80,0.00,,---,0.00,VWS V14.01,2013-03-22 14:35:00,
2013-03-22 09:41:00,45.6,39.8,29.74,North,355,7.0,10.0,80,0.00,,---,0.00,VWS V14.01,2013-03-22 14:41:00,
2013-03-22 09:44:00,45.8,40.0,29.74,North,350,4.0,10.0,80,0.00,,---,0.00,VWS V14.01,2013-03-22 14:44:00,
2013-03-22 09:47:00,45.9,39.8,29.73,North,355,5.0,10.0,79,0.00,,---,0.00,VWS V14.01,2013-03-22 14:47:00,
2013-03-22 09:50:00,46.0,39.9,29.73,NNW,342,5.0,10.0,79,0.00,,---,0.00,VWS V14.01,2013-03-22 14:50:00,
2013-03-22 09:59:00,46.2,40.1,29.74,North,355,8.0,10.0,79,0.00,,---,0.00,VWS V14.01,2013-03-22 14:59:00,
2013-03-22 10:05:00,46.2,40.1,29.75,NNW,338,3.0,8.0,79,0.00,,---,0.00,VWS V14.01,2013-03-22 15:05:00,
2013-03-22 10:11:00,46.1,40.0,29.75,NNW,348,6.0,10.0,79,0.00,,---,0.00,VWS V14.01,2013-03-22 15:11:00,
2013-03-22 10:14:00,46.1,40.0,29.75,North,5,8.0,10.0,79,0.00,,---,0.00,VWS V14.01,2013-03-22 15:14:00,
2013-03-22 10:17:00,46.0,39.9,29.75,NNE,18,8.0,10.0,79,0.00,,---,0.00,VWS V14.01,2013-03-22 15:17:00,
2013-03-22 10:20:00,46.0,39.9,29.75,North,5,7.0,10.0,79,0.00,,---,0.00,VWS V14.01,2013-03-22 15:20:00,
2013-03-22 10:23:00,46.0,39.9,29.75,North,355,4.0,10.0,79,0.00,,---,0.00,VWS V14.01,2013-03-22 15:23:00,
2013-03-22 10:29:00,45.8,39.7,29.76,NW,317,9.0,10.0,79,0.00,,---,0.00,VWS V14.01,2013-03-22 15:29:00,
2013-03-22 10:32:00,45.7,39.9,29.76,NNW,331,9.0,10.0,80,0.00,,---,0.00,VWS V14.01,2013-03-22 15:32:00,
2013-03-22 10:35:00,45.6,40.1,29.76,NNW,333,5.0,10.0,81,0.00,,---,0.00,VWS V14.01,2013-03-22 15:35:00,
2013-03-22 10:38:00,45.6,40.1,29.77,North,350,5.0,10.0,81,0.00,,---,0.00,VWS V14.01,2013-03-22 15:38:00,
2013-03-22 10:41:00,45.7,40.2,29.76,NNE,13,7.0,10.0,81,0.00,,---,0.00,VWS V14.01,2013-03-22 15:41:00,
2013-03-22 10:44:00,45.6,39.8,29.76,NNW,340,5.0,10.0,80,0.00,,---,0.00,VWS V14.01,2013-03-22 15:44:00,
2013-03-22 10:47:00,45.6,39.8,29.77,North,349,5.0,10.0,80,0.00,,---,0.00,VWS V14.01,2013-03-22 15:47:00,
2013-03-22 10:53:00,45.7,39.9,29.77,NNE,13,5.0,10.0,80,0.00,,---,0.00,VWS V14.01,2013-03-22 15:53:00,
2013-03-22 10:56:00,45.6,39.8,29.77,North,355,4.0,11.0,80,0.00,,---,0.00,VWS V14.01,2013-03-22 15:56:00,
2013-03-22 10:59:00,45.8,40.0,29.77,NNW,344,5.0,11.0,80,0.00,,---,0.00,VWS V14.01,2013-03-22 15:59:00,
2013-03-22 11:05:00,45.9,39.8,29.77,NNW,342,5.0,12.0,79,0.00,,---,0.00,VWS V14.01,2013-03-22 16:05:00,
2013-03-22 11:08:00,45.9,39.8,29.77,NW,319,6.0,13.0,79,0.00,,---,0.00,VWS V14.01,2013-03-22 16:08:00,
2013-03-22 11:15:00,46.0,39.9,29.78,NW,324,11.0,13.0,79,0.00,,---,0.00,VWS V14.01,2013-03-22 16:15:00,
2013-03-22 11:18:00,46.1,40.0,29.78,NNW,344,5.0,13.0,79,0.00,,---,0.00,VWS V14.01,2013-03-22 16:18:00,
2013-03-22 11:24:00,46.3,40.2,29.79,NNW,330,9.0,13.0,79,0.00,,---,0.00,VWS V14.01,2013-03-22 16:24:00,
2013-03-22 11:27:00,46.3,39.8,29.79,NW,304,6.0,13.0,78,0.00,,---,0.00,VWS V14.01,2013-03-22 16:27:00,
2013-03-22 11:30:00,46.3,40.2,29.79,NNW,336,6.0,13.0,79,0.00,,---,0.00,VWS V14.01,2013-03-22 16:30:00,
2013-03-22 11:31:00,46.5,40.3,29.79,North,5,7.0,13.0,79,0.00,,---,0.00,VWS V14.01,2013-03-22 16:31:00,
2013-03-22 11:33:00,46.6,40.1,29.79,NNW,330,5.0,7.0,78,0.00,,---,0.00,VWS V14.01,2013-03-22 16:33:00,
2013-03-22 11:39:00,46.6,40.1,29.79,NW,306,8.0,11.0,78,0.00,,---,0.00,VWS V14.01,2013-03-22 16:39:00,
2013-03-22 11:42:00,46.4,39.9,29.79,NW,323,9.0,12.0,78,0.00,,---,0.00,VWS V14.01,2013-03-22 16:42:00,
2013-03-22 11:48:00,46.2,40.1,29.79,WNW,302,7.0,12.0,79,0.00,,---,0.00,VWS V14.01,2013-03-22 16:48:00,
2013-03-22 11:54:00,46.3,40.2,29.79,NW,311,11.0,12.0,79,0.00,,---,0.00,VWS V14.01,2013-03-22 16:54:00,
2013-03-22 12:00:00,46.5,40.3,29.78,NW,313,5.0,12.0,79,0.00,,---,0.00,VWS V14.01,2013-03-22 17:00:00,
2013-03-22 12:03:00,46.6,40.1,29.78,NW,311,6.0,10.0,78,0.00,,---,0.00,VWS V14.01,2013-03-22 17:03:00,
2013-03-22 12:06:00,46.7,40.2,29.78,North,5,7.0,11.0,78,0.00,,---,0.00,VWS V14.01,2013-03-22 17:06:00,
2013-03-22 12:09:00,46.9,40.4,29.78,NNW,346,8.0,11.0,78,0.00,,---,0.00,VWS V14.01,2013-03-22 17:09:00,
2013-03-22 12:12:00,46.9,40.1,29.78,NNW,333,8.0,11.0,77,0.00,,---,0.00,VWS V14.01,2013-03-22 17:12:00,
2013-03-22 12:18:00,47.0,40.2,29.78,NNW,344,4.0,11.0,77,0.00,,---,0.00,VWS V14.01,2013-03-22 17:18:00,
2013-03-22 12:24:00,47.1,39.9,29.78,North,5,7.0,11.0,76,0.00,,---,0.00,VWS V14.01,2013-03-22 17:24:00,
2013-03-22 12:30:00,47.2,40.0,29.78,NNW,343,6.0,11.0,76,0.00,,---,0.00,VWS V14.01,2013-03-22 17:30:00,
2013-03-22 12:36:00,47.6,40.4,29.78,NNW,333,7.0,11.0,76,0.00,,---,0.00,VWS V14.01,2013-03-22 17:36:00,
2013-03-22 12:39:00,47.7,40.2,29.78,NNW,330,3.0,11.0,75,0.00,,---,0.00,VWS V14.01,2013-03-22 17:39:00,
2013-03-22 12:42:00,47.7,40.2,29.79,NW,319,8.0,11.0,75,0.00,,---,0.00,VWS V14.01,2013-03-22 17:42:00,
2013-03-22 12:45:00,47.5,40.3,29.79,North,11,7.0,11.0,76,0.00,,---,0.00,VWS V14.01,2013-03-22 17:45:00,
2013-03-22 12:49:00,47.4,40.2,29.78,North,360,3.0,11.0,76,0.00,,---,0.00,VWS V14.01,2013-03-22 17:49:00,
2013-03-22 12:55:00,47.4,40.2,29.79,NNW,330,7.0,11.0,76,0.00,,---,0.00,VWS V14.01,2013-03-22 17:55:00,
2013-03-22 12:58:00,47.4,40.2,29.78,NNW,335,5.0,11.0,76,0.00,,---,0.00,VWS V14.01,2013-03-22 17:58:00,
2013-03-22 13:04:00,47.5,40.3,29.78,NNE,14,6.0,10.0,76,0.00,,---,0.00,VWS V14.01,2013-03-22 18:04:00,
2013-03-22 13:07:00,47.5,40.3,29.78,NNW,344,5.0,10.0,76,0.00,,---,0.00,VWS V14.01,2013-03-22 18:07:00,
2013-03-22 13:13:00,47.2,40.4,29.77,NNW,341,6.0,10.0,77,0.00,,---,0.00,VWS V14.01,2013-03-22 18:13:00,
2013-03-22 13:19:00,47.3,40.5,29.77,NNW,333,7.0,11.0,77,0.00,,---,0.00,VWS V14.01,2013-03-22 18:19:00,
2013-03-22 13:22:00,47.3,40.5,29.77,NNW,338,8.0,12.0,77,0.00,,---,0.00,VWS V14.01,2013-03-22 18:22:00,
2013-03-22 13:25:00,47.2,40.4,29.77,North,5,5.0,12.0,77,0.00,,---,0.00,VWS V14.01,2013-03-22 18:25:00,
2013-03-22 13:31:00,47.0,40.5,29.77,North,5,4.0,13.0,78,0.00,,---,0.00,VWS V14.01,2013-03-22 18:31:00,
2013-03-22 13:34:00,47.0,40.5,29.77,North,355,7.0,10.0,78,0.00,,---,0.00,VWS V14.01,2013-03-22 18:34:00,
2013-03-22 13:37:00,47.0,40.5,29.77,NW,323,9.0,11.0,78,0.00,,---,0.00,VWS V14.01,2013-03-22 18:37:00,
2013-03-22 13:43:00,47.3,40.8,29.77,NNW,340,6.0,11.0,78,0.00,,---,0.00,VWS V14.01,2013-03-22 18:43:00,
2013-03-22 13:49:00,47.6,40.8,29.77,North,360,8.0,11.0,77,0.00,,---,0.00,VWS V14.01,2013-03-22 18:49:00,
2013-03-22 13:52:00,47.7,40.5,29.77,NNW,330,6.0,11.0,76,0.00,,---,0.00,VWS V14.01,2013-03-22 18:52:00,
2013-03-22 13:55:00,47.8,41.0,29.77,NNW,331,4.0,11.0,77,0.00,,---,0.00,VWS V14.01,2013-03-22 18:55:00,
2013-03-22 14:01:00,48.0,40.8,29.76,NNE,15,5.0,8.0,76,0.00,,---,0.00,VWS V14.01,2013-03-22 19:01:00,
2013-03-22 14:04:00,48.0,40.8,29.76,NNW,348,4.0,12.0,76,0.00,,---,0.00,VWS V14.01,2013-03-22 19:04:00,
2013-03-22 14:10:00,48.1,40.6,29.76,North,355,8.0,12.0,75,0.00,,---,0.00,VWS V14.01,2013-03-22 19:10:00,
2013-03-22 14:13:00,48.3,41.1,29.76,North,355,4.0,12.0,76,0.00,,---,0.00,VWS V14.01,2013-03-22 19:13:00,
2013-03-22 14:16:00,48.5,41.0,29.76,NNE,13,7.0,12.0,75,0.00,,---,0.00,VWS V14.01,2013-03-22 19:16:00,
2013-03-22 14:22:00,48.9,41.0,29.76,North,355,4.0,12.0,74,0.00,,---,0.00,VWS V14.01,2013-03-22 19:22:00,
2013-03-22 14:29:00,49.1,40.8,29.76,North,355,11.0,14.0,73,0.00,,---,0.00,VWS V14.01,2013-03-22 19:29:00,
2013-03-22 14:32:00,49.2,40.9,29.76,North,360,7.0,10.0,73,0.00,,---,0.00,VWS V14.01,2013-03-22 19:32:00,
2013-03-22 14:35:00,49.3,41.0,29.76,NW,326,6.0,11.0,73,0.00,,---,0.00,VWS V14.01,2013-03-22 19:35:00,
2013-03-22 14:38:00,49.4,40.8,29.76,NNW,329,8.0,11.0,72,0.00,,---,0.00,VWS V14.01,2013-03-22 19:38:00,
2013-03-22 14:41:00,49.3,41.0,29.76,NW,315,8.0,12.0,73,0.00,,---,0.00,VWS V14.01,2013-03-22 19:41:00,
2013-03-22 14:44:00,49.3,40.7,29.76,NNW,329,7.0,13.0,72,0.00,,---,0.00,VWS V14.01,2013-03-22 19:44:00,
2013-03-22 14:50:00,49.4,41.1,29.75,North,350,7.0,13.0,73,0.00,,---,0.00,VWS V14.01,2013-03-22 19:50:00,
2013-03-22 14:53:00,49.5,41.2,29.75,NNW,344,11.0,13.0,73,0.00,,---,0.00,VWS V14.01,2013-03-22 19:53:00,
2013-03-22 14:59:00,49.6,41.0,29.75,NW,315,9.0,13.0,72,0.00,,---,0.00,VWS V14.01,2013-03-22 19:59:00,
2013-03-22 15:02:00,49.3,41.0,29.75,NNW,346,12.0,14.0,73,0.00,,---,0.00,VWS V14.01,2013-03-22 20:02:00,
2013-03-22 15:05:00,49.2,40.9,29.75,NNW,335,7.0,14.0,73,0.00,,---,0.00,VWS V14.01,2013-03-22 20:05:00,
2013-03-22 15:08:00,49.1,40.8,29.76,North,10,6.0,14.0,73,0.00,,---,0.00,VWS V14.01,2013-03-22 20:08:00,
2013-03-22 15:11:00,49.0,41.1,29.75,North,11,4.0,14.0,74,0.00,,---,0.00,VWS V14.01,2013-03-22 20:11:00,
2013-03-22 15:17:00,49.2,40.9,29.75,NNW,335,7.0,14.0,73,0.00,,---,0.00,VWS V14.01,2013-03-22 20:17:00,
2013-03-22 15:20:00,49.1,41.2,29.75,NNW,329,10.0,14.0,74,0.00,,---,0.00,VWS V14.01,2013-03-22 20:20:00,
2013-03-22 15:29:00,48.9,41.3,29.75,North,5,5.0,14.0,75,0.00,,---,0.00,VWS V14.01,2013-03-22 20:29:00,
2013-03-22 15:35:00,49.0,41.4,29.75,NNE,32,8.0,10.0,75,0.00,,---,0.00,VWS V14.01,2013-03-22 20:35:00,
2013-03-22 15:44:00,49.0,41.1,29.75,NNW,333,4.0,10.0,74,0.00,,---,0.00,VWS V14.01,2013-03-22 20:44:00,
2013-03-22 15:47:00,49.1,41.5,29.75,North,355,6.0,10.0,75,0.00,,---,0.00,VWS V14.01,2013-03-22 20:47:00,
2013-03-22 15:50:00,49.2,41.3,29.75,NNW,336,8.0,10.0,74,0.00,,---,0.00,VWS V14.01,2013-03-22 20:50:00,
2013-03-22 15:53:00,49.2,41.3,29.75,NNE,24,4.0,11.0,74,0.00,,---,0.00,VWS V14.01,2013-03-22 20:53:00,
2013-03-22 15:57:00,49.2,41.3,29.75,NNW,345,3.0,11.0,74,0.00,,---,0.00,VWS V14.01,2013-03-22 20:57:00,
2013-03-22 16:03:00,49.2,41.3,29.75,NNW,342,5.0,8.0,74,0.00,,---,0.00,VWS V14.01,2013-03-22 21:03:00,
2013-03-22 16:06:00,49.2,41.3,29.75,North,355,5.0,9.0,74,0.00,,---,0.00,VWS V14.01,2013-03-22 21:06:00,
2013-03-22 16:09:00,49.2,41.3,29.75,North,351,4.0,9.0,74,0.00,,---,0.00,VWS V14.01,2013-03-22 21:09:00,
2013-03-22 16:12:00,49.1,41.2,29.76,North,5,3.0,9.0,74,0.00,,---,0.00,VWS V14.01,2013-03-22 21:12:00,
2013-03-22 16:15:00,49.1,41.2,29.76,NW,322,6.0,9.0,74,0.00,,---,0.00,VWS V14.01,2013-03-22 21:15:00,
2013-03-22 16:21:00,49.2,41.3,29.75,NNE,32,4.0,9.0,74,0.00,,---,0.00,VWS V14.01,2013-03-22 21:21:00,
2013-03-22 16:24:00,49.3,41.4,29.76,North,355,5.0,9.0,74,0.00,,---,0.00,VWS V14.01,2013-03-22 21:24:00,
2013-03-22 16:27:00,49.4,41.5,29.76,North,360,3.0,9.0,74,0.00,,---,0.00,VWS V14.01,2013-03-22 21:27:00,
2013-03-22 16:30:00,49.5,41.6,29.76,NW,318,7.0,9.0,74,0.00,,---,0.00,VWS V14.01,2013-03-22 21:30:00,
2013-03-22 16:31:00,49.5,41.2,29.76,NNW,329,7.0,10.0,73,0.00,,---,0.00,VWS V14.01,2013-03-22 21:31:00,
2013-03-22 16:33:00,49.6,41.3,29.76,NNW,327,4.0,8.0,73,0.00,,---,0.00,VWS V14.01,2013-03-22 21:33:00,
2013-03-22 16:39:00,49.8,41.5,29.75,North,11,6.0,8.0,73,0.00,,---,0.00,VWS V14.01,2013-03-22 21:39:00,
2013-03-22 16:45:00,49.9,41.2,29.76,NW,315,5.0,8.0,72,0.00,,---,0.00,VWS V14.01,2013-03-22 21:45:00,
2013-03-22 16:48:00,49.9,41.6,29.76,NNW,338,8.0,10.0,73,0.00,,---,0.00,VWS V14.01,2013-03-22 21:48:00,
2013-03-22 16:54:00,49.9,41.6,29.76,North,355,1.0,10.0,73,0.00,,---,0.00,VWS V14.01,2013-03-22 21:54:00,
2013-03-22 17:00:00,50.1,41.4,29.76,North,5,6.0,10.0,72,0.00,,---,0.00,VWS V14.01,2013-03-22 22:00:00,
2013-03-22 17:06:00,50.1,41.4,29.76,NNW,347,4.0,7.0,72,0.00,,---,0.00,VWS V14.01,2013-03-22 22:06:00,
2013-03-22 17:12:00,50.2,41.9,29.77,NNW,331,5.0,8.0,73,0.00,,---,0.00,VWS V14.01,2013-03-22 22:12:00,
2013-03-22 17:15:00,50.3,41.6,29.77,NNW,331,3.0,8.0,72,0.00,,---,0.00,VWS V14.01,2013-03-22 22:15:00,
2013-03-22 17:18:00,50.3,41.6,29.76,NW,321,5.0,8.0,72,0.00,,---,0.00,VWS V14.01,2013-03-22 22:18:00,
2013-03-22 17:24:00,50.4,41.7,29.76,NNW,341,3.0,9.0,72,0.00,,---,0.00,VWS V14.01,2013-03-22 22:24:00,
2013-03-22 17:31:00,50.5,41.8,29.77,North,349,7.0,9.0,72,0.00,,---,0.00,VWS V14.01,2013-03-22 22:31:00,
2013-03-22 17:34:00,50.5,41.5,29.76,North,9,5.0,9.0,71,0.00,,---,0.00,VWS V14.01,2013-03-22 22:34:00,
2013-03-22 17:40:00,50.7,41.7,29.76,North,5,6.0,9.0,71,0.00,,---,0.00,VWS V14.01,2013-03-22 22:40:00,
2013-03-22 17:43:00,50.7,41.7,29.76,NNW,335,5.0,9.0,71,0.00,,---,0.00,VWS V14.01,2013-03-22 22:43:00,
2013-03-22 17:46:00,50.8,41.8,29.76,NNW,340,5.0,9.0,71,0.00,,---,0.00,VWS V14.01,2013-03-22 22:46:00,
2013-03-22 17:49:00,50.8,42.1,29.77,NNW,348,3.0,9.0,72,0.00,,---,0.00,VWS V14.01,2013-03-22 22:49:00,
2013-03-22 17:52:00,50.8,41.8,29.77,NNE,19,6.0,9.0,71,0.00,,---,0.00,VWS V14.01,2013-03-22 22:52:00,
2013-03-22 17:55:00,50.8,41.8,29.77,NNW,334,4.0,10.0,71,0.00,,---,0.00,VWS V14.01,2013-03-22 22:55:00,
2013-03-22 17:58:00,50.7,41.7,29.77,NW,326,13.0,13.0,71,0.00,,---,0.00,VWS V14.01,2013-03-22 22:58:00,
2013-03-22 18:04:00,50.5,41.8,29.77,North,360,5.0,10.0,72,0.00,,---,0.00,VWS V14.01,2013-03-22 23:04:00,
2013-03-22 18:07:00,50.5,41.8,29.77,North,11,3.0,10.0,72,0.00,,---,0.00,VWS V14.01,2013-03-22 23:07:00,
2013-03-22 18:10:00,50.5,41.8,29.77,NNE,15,3.0,10.0,72,0.00,,---,0.00,VWS V14.01,2013-03-22 23:10:00,
2013-03-22 18:13:00,50.5,41.8,29.77,NNW,327,2.0,10.0,72,0.00,,---,0.00,VWS V14.01,2013-03-22 23:13:00,
2013-03-22 18:16:00,50.6,41.9,29.76,NNW,336,2.0,10.0,72,0.00,,---,0.00,VWS V14.01,2013-03-22 23:16:00,
2013-03-22 18:19:00,50.7,41.7,29.76,NNE,21,3.0,10.0,71,0.00,,---,0.00,VWS V14.01,2013-03-22 23:19:00,
2013-03-22 18:22:00,50.8,41.8,29.75,North,5,2.0,10.0,71,0.00,,---,0.00,VWS V14.01,2013-03-22 23:22:00,
2013-03-22 18:28:00,51.0,41.9,29.76,NNW,330,3.0,10.0,71,0.00,,---,0.00,VWS V14.01,2013-03-22 23:28:00,
2013-03-22 18:34:00,51.1,42.0,29.76,North,351,1.0,5.0,71,0.00,,---,0.00,VWS V14.01,2013-03-22 23:34:00,
2013-03-22 18:37:00,51.2,41.8,29.75,North,355,4.0,6.0,70,0.00,,---,0.00,VWS V14.01,2013-03-22 23:37:00,
2013-03-22 18:40:00,51.1,42.0,29.75,ENE,67,5.0,6.0,71,0.00,,---,0.00,VWS V14.01,2013-03-22 23:40:00,
2013-03-22 18:43:00,50.9,41.8,29.75,NE,38,1.0,7.0,71,0.00,,---,0.00,VWS V14.01,2013-03-22 23:43:00,
2013-03-22 18:46:00,50.9,41.8,29.75,North,355,6.0,7.0,71,0.00,,---,0.00,VWS V14.01,2013-03-22 23:46:00,
2013-03-22 18:49:00,50.9,41.8,29.74,NNE,30,2.0,7.0,71,0.00,,---,0.00,VWS V14.01,2013-03-22 23:49:00,
2013-03-22 18:52:00,50.9,41.8,29.74,NNE,33,4.0,7.0,71,0.00,,---,0.00,VWS V14.01,2013-03-22 23:52:00,
2013-03-22 18:55:00,50.8,41.8,29.73,NNE,28,5.0,8.0,71,0.00,,---,0.00,VWS V14.01,2013-03-22 23:55:00,
2013-03-22 18:58:00,50.6,41.6,29.73,NNE,24,4.0,8.0,71,0.00,,---,0.00,VWS V14.01,2013-03-22 23:58:00,
2013-03-22 19:01:00,50.6,41.6,29.73,NNE,29,2.0,8.0,71,0.00,,---,0.00,VWS V14.01,2013-03-23 00:01:00,
2013-03-22 19:05:00,50.6,41.6,29.73,NNW,337,4.0,7.0,71,0.00,,---,0.00,VWS V14.01,2013-03-23 00:05:00,
2013-03-22 19:08:00,50.6,41.6,29.73,NE,48,5.0,8.0,71,0.00,,---,0.00,VWS V14.01,2013-03-23 00:08:00,
2013-03-22 19:14:00,50.5,41.8,29.75,NNE,27,4.0,8.0,72,0.00,,---,0.00,VWS V14.01,2013-03-23 00:14:00,
2013-03-22 19:20:00,50.6,41.9,29.75,NE,46,4.0,8.0,72,0.00,,---,0.00,VWS V14.01,2013-03-23 00:20:00,
2013-03-22 19:23:00,50.5,41.8,29.76,NE,36,2.0,8.0,72,0.00,,---,0.00,VWS V14.01,2013-03-23 00:23:00,
2013-03-22 19:29:00,50.6,41.9,29.76,NNE,20,0.0,8.0,72,0.00,,---,0.00,VWS V14.01,2013-03-23 00:29:00,
2013-03-22 19:35:00,50.7,42.0,29.76,NE,34,2.0,3.0,72,0.00,,---,0.00,VWS V14.01,2013-03-23 00:35:00,
2013-03-22 19:38:00,50.8,42.1,29.77,NNE,19,2.0,3.0,72,0.00,,---,0.00,VWS V14.01,2013-03-23 00:38:00,
2013-03-22 19:44:00,50.7,41.7,29.77,NNE,18,0.0,3.0,71,0.00,,---,0.00,VWS V14.01,2013-03-23 00:44:00,
2013-03-22 19:50:00,50.6,41.9,29.77,NNE,19,0.0,4.0,72,0.00,,---,0.00,VWS V14.01,2013-03-23 00:50:00,
2013-03-22 19:53:00,50.6,41.9,29.77,North,355,2.0,5.0,72,0.00,,---,0.00,VWS V14.01,2013-03-23 00:53:00,
2013-03-22 19:59:00,50.6,41.9,29.77,NNE,17,3.0,5.0,72,0.00,,---,0.00,VWS V14.01,2013-03-23 00:59:00,
2013-03-22 20:05:00,50.6,41.9,29.76,NNE,28,2.0,4.0,72,0.00,,---,0.00,VWS V14.01,2013-03-23 01:05:00,
2013-03-22 20:11:00,50.5,41.8,29.76,NE,38,3.0,4.0,72,0.00,,---,0.00,VWS V14.01,2013-03-23 01:11:00,
2013-03-22 20:14:00,50.5,41.8,29.76,NE,49,2.0,4.0,72,0.00,,---,0.00,VWS V14.01,2013-03-23 01:14:00,
2013-03-22 20:17:00,50.4,41.7,29.77,NE,49,3.0,4.0,72,0.00,,---,0.00,VWS V14.01,2013-03-23 01:17:00,
2013-03-22 20:20:00,50.4,41.7,29.76,NNE,32,4.0,4.0,72,0.00,,---,0.00,VWS V14.01,2013-03-23 01:20:00,
2013-03-22 20:23:00,50.4,42.1,29.77,NNE,17,2.0,4.0,73,0.00,,---,0.00,VWS V14.01,2013-03-23 01:23:00,
2013-03-22 20:26:00,50.4,42.1,29.77,NNE,15,2.0,4.0,73,0.00,,---,0.00,VWS V14.01,2013-03-23 01:26:00,
2013-03-22 20:29:00,50.4,42.1,29.77,North,9,2.0,4.0,73,0.00,,---,0.00,VWS V14.01,2013-03-23 01:29:00,
2013-03-22 20:32:00,50.4,42.1,29.76,NE,34,3.0,6.0,73,0.00,,---,0.00,VWS V14.01,2013-03-23 01:32:00,
2013-03-22 20:35:00,50.4,42.1,29.77,NE,40,3.0,6.0,73,0.00,,---,0.00,VWS V14.01,2013-03-23 01:35:00,
2013-03-22 20:38:00,50.3,42.0,29.77,NE,40,3.0,6.0,73,0.00,,---,0.00,VWS V14.01,2013-03-23 01:38:00,
2013-03-22 20:41:00,50.3,42.0,29.77,NNE,17,5.0,6.0,73,0.00,,---,0.00,VWS V14.01,2013-03-23 01:41:00,
2013-03-22 20:44:00,50.3,42.3,29.77,NNE,28,2.0,7.0,74,0.00,,---,0.00,VWS V14.01,2013-03-23 01:44:00,
2013-03-22 20:51:00,50.2,42.2,29.77,NNE,14,4.0,7.0,74,0.00,,---,0.00,VWS V14.01,2013-03-23 01:51:00,
2013-03-22 20:54:00,50.2,42.2,29.78,NNE,14,3.0,7.0,74,0.00,,---,0.00,VWS V14.01,2013-03-23 01:54:00,
2013-03-22 20:57:00,50.2,42.2,29.78,NNE,13,3.0,7.0,74,0.00,,---,0.00,VWS V14.01,2013-03-23 01:57:00,
2013-03-22 21:00:00,50.2,42.2,29.78,North,9,4.0,7.0,74,0.00,,---,0.00,VWS V14.01,2013-03-23 02:00:00,
2013-03-22 21:03:00,50.2,42.2,29.77,NE,36,3.0,4.0,74,0.00,,---,0.00,VWS V14.01,2013-03-23 02:03:00,
2013-03-22 21:09:00,50.2,42.2,29.78,North,9,2.0,6.0,74,0.00,,---,0.00,VWS V14.01,2013-03-23 02:09:00,
2013-03-22 21:15:00,50.2,41.9,29.78,NNE,30,2.0,6.0,73,0.00,,---,0.00,VWS V14.01,2013-03-23 02:15:00,
2013-03-22 21:18:00,50.2,41.9,29.78,NNE,12,3.0,6.0,73,0.00,,---,0.00,VWS V14.01,2013-03-23 02:18:00,
2013-03-22 21:24:00,50.2,42.2,29.78,NNE,26,1.0,6.0,74,0.00,,---,0.00,VWS V14.01,2013-03-23 02:24:00,
2013-03-22 21:27:00,50.2,41.9,29.78,NNE,19,0.0,6.0,73,0.00,,---,0.00,VWS V14.01,2013-03-23 02:27:00,
2013-03-22 21:30:00,50.2,41.9,29.78,NNE,28,3.0,6.0,73,0.00,,---,0.00,VWS V14.01,2013-03-23 02:30:00,
2013-03-22 21:33:00,50.2,41.9,29.78,North,5,3.0,5.0,73,0.00,,---,0.00,VWS V14.01,2013-03-23 02:33:00,
2013-03-22 21:36:00,50.2,42.2,29.78,NE,34,2.0,5.0,74,0.00,,---,0.00,VWS V14.01,2013-03-23 02:36:00,
2013-03-22 21:42:00,50.1,42.2,29.78,NNE,13,3.0,5.0,74,0.00,,---,0.00,VWS V14.01,2013-03-23 02:42:00,
2013-03-22 21:45:00,50.1,42.2,29.78,NNE,32,4.0,6.0,74,0.00,,---,0.00,VWS V14.01,2013-03-23 02:45:00,
2013-03-22 21:48:00,50.1,42.2,29.78,NNE,23,3.0,6.0,74,0.00,,---,0.00,VWS V14.01,2013-03-23 02:48:00,
2013-03-22 21:54:00,50.1,41.8,29.78,NNE,22,2.0,6.0,73,0.00,,---,0.00,VWS V14.01,2013-03-23 02:54:00,
2013-03-22 22:00:00,50.0,41.7,29.78,NNE,31,3.0,6.0,73,0.00,,---,0.00,VWS V14.01,2013-03-23 03:00:00,
2013-03-22 22:03:00,49.9,41.6,29.78,NNE,30,2.0,4.0,73,0.00,,---,0.00,VWS V14.01,2013-03-23 03:03:00,
2013-03-22 22:06:00,49.9,41.6,29.78,North,5,2.0,6.0,73,0.00,,---,0.00,VWS V14.01,2013-03-23 03:06:00,
2013-03-22 22:10:00,49.9,41.6,29.79,North,360,1.0,6.0,73,0.00,,---,0.00,VWS V14.01,2013-03-23 03:10:00,
2013-03-22 22:13:00,49.9,41.6,29.79,North,5,3.0,6.0,73,0.00,,---,0.00,VWS V14.01,2013-03-23 03:13:00,
2013-03-22 22:16:00,49.9,41.6,29.79,North,5,2.0,6.0,73,0.00,,---,0.00,VWS V14.01,2013-03-23 03:16:00,
2013-03-22 22:19:00,49.9,41.6,29.79,North,10,4.0,6.0,73,0.00,,---,0.00,VWS V14.01,2013-03-23 03:19:00,
2013-03-22 22:25:00,49.9,41.6,29.79,NNE,27,0.0,6.0,73,0.00,,---,0.00,VWS V14.01,2013-03-23 03:25:00,
2013-03-22 22:28:00,49.9,42.0,29.78,NNE,32,4.0,6.0,74,0.00,,---,0.00,VWS V14.01,2013-03-23 03:28:00,
2013-03-22 22:34:00,49.8,41.9,29.77,NE,50,4.0,5.0,74,0.00,,---,0.00,VWS V14.01,2013-03-23 03:34:00,
2013-03-22 22:37:00,49.8,41.9,29.80,NNE,24,1.0,5.0,74,0.00,,---,0.00,VWS V14.01,2013-03-23 03:37:00,
2013-03-22 22:40:00,49.8,41.9,29.80,NNE,24,2.0,5.0,74,0.00,,---,0.00,VWS V14.01,2013-03-23 03:40:00,
2013-03-22 22:43:00,49.8,41.5,29.80,NE,35,1.0,5.0,73,0.00,,---,0.00,VWS V14.01,2013-03-23 03:43:00,
2013-03-22 22:49:00,49.7,41.4,29.79,NE,54,6.0,6.0,73,0.00,,---,0.00,VWS V14.01,2013-03-23 03:49:00,
2013-03-22 22:55:00,49.6,41.3,29.78,North,350,5.0,9.0,73,0.00,,---,0.00,VWS V14.01,2013-03-23 03:55:00,
2013-03-22 22:58:00,49.5,41.2,29.78,NNE,18,8.0,9.0,73,0.00,,---,0.00,VWS V14.01,2013-03-23 03:58:00,
2013-03-22 23:01:00,49.4,41.1,29.81,North,5,2.0,2.0,73,0.00,,---,0.00,VWS V14.01,2013-03-23 04:01:00,
2013-03-22 23:04:00,49.4,41.1,29.78,ENE,60,8.0,8.0,73,0.00,,---,0.00,VWS V14.01,2013-03-23 04:04:00,
2013-03-22 23:07:00,49.3,41.4,29.77,NE,34,4.0,8.0,74,0.00,,---,0.00,VWS V14.01,2013-03-23 04:07:00,
2013-03-22 23:10:00,49.2,40.9,29.78,North,355,4.0,8.0,73,0.00,,---,0.00,VWS V14.01,2013-03-23 04:10:00,
2013-03-22 23:20:00,49.2,41.3,29.77,NNE,28,4.0,8.0,74,0.00,,---,0.00,VWS V14.01,2013-03-23 04:20:00,
2013-03-22 23:23:00,49.1,41.2,29.77,NE,38,2.0,8.0,74,0.00,,---,0.00,VWS V14.01,2013-03-23 04:23:00,
2013-03-22 23:29:00,49.0,41.4,29.79,ENE,66,3.0,8.0,75,0.00,,---,0.00,VWS V14.01,2013-03-23 04:29:00,
2013-03-22 23:32:00,49.0,41.4,29.79,ENE,59,1.0,4.0,75,0.00,,---,0.00,VWS V14.01,2013-03-23 04:32:00,
2013-03-22 23:35:00,49.0,41.4,29.80,NE,36,0.0,4.0,75,0.00,,---,0.00,VWS V14.01,2013-03-23 04:35:00,
2013-03-22 23:38:00,49.0,41.4,29.80,NE,45,2.0,4.0,75,0.00,,---,0.00,VWS V14.01,2013-03-23 04:38:00,
2013-03-22 23:44:00,49.0,41.4,29.79,NE,48,1.0,4.0,75,0.00,,---,0.00,VWS V14.01,2013-03-23 04:44:00,
2013-03-22 23:47:00,49.1,41.5,29.80,NE,48,0.0,4.0,75,0.00,,---,0.00,VWS V14.01,2013-03-23 04:47:00,
2013-03-22 23:53:00,49.1,41.5,29.80,NE,47,2.0,4.0,75,0.00,,---,0.00,VWS V14.01,2013-03-23 04:53:00,
2013-03-22 23:59:00,49.1,41.5,29.79,NE,47,1.0,4.0,75,0.00,,---,0.00,VWS V14.01,2013-03-23 04:59:00,